Torna al catalogo

FENGYUN 1C DEB

AttivoSSO
NORAD 32130·DEBRIS·🇨🇳 China

Lanciato May 10, 1999 da Taiyuan Satellite Launch Center

Loading…

Prossimi Passaggi (prossime 24 ore)

TLE

AggiornatoSource: Space-Track

Epoca: Sep 14, 2026, 06:01 UTC

1 32130U 99025CRY 26257.25130612  .00000742  00000-0  25089-3 0  9996
2 32130  98.9223  79.0468 0081123 236.8713 122.4670 14.38218715  1871

Traccia FENGYUN 1C DEB in tempo reale con AllMySat

Download on the App Store